Карточка аэропорта UASK

Внимание!
Информация на этой странице в стадии наполнения.
Если вы не увидели какой-то информации, или заметили неточность - пожалуйста сообщите нам!
Спасибо!
Команда RU-STAFF
Название аэропортаУсть-Каменогорск
Название аэропорта (англ.)Ust-Kamenogorsk
Превышение942 ft. (287.1 m.)
Координаты50°2.2020000000002', 82°29.598'
Высота перехода10000ft
Эшелон переходаFL120, QNH<733:FL130
Коды ответчика7250-7253, 0650-0657
Зона ОрВДАлматы РПИ (UAAA)
Данные METARUASK 220700Z 30002MPS 230V350 9999 BKN050CB 26/16 Q1007 NOSIG RMK QFE730/0973
Проноз погоды (TAF)UASK 220501Z 2206/2215 29004G09MPS 9999 SCT040CB BKN100 TEMPO 2206/2212 VRB15MPS 3100 -TSRA SCT004 BKN033CB
NOTAMshow/hide NOTAM
AWOS   TABLE

Информация о ВПП

ВПП Длина ВПП (м.) Покрытие Курс ВПП Частота ILS
122514Асфальтобетон124111.7
302514Асфальтобетон304109.7

Диспетчерские позиции

Позывной Наименование органа УВД Частота
UASK_TWRУсть-Каменогорск-Вышка130.1



Спутниковое изображение